Home > Time Zones > World Clock > Weather > Norway > Oslo > Past weeks

Flag for Norway Weather past 2 weeks in Oslo, Norway

Now
59 °F

Light rain. Overcast.


Feels Like: 59 °F
Forecast: 58 / 70 °F
Wind: 3 mph from Northeast

Location: Oslo-Blindern

Current Time: Aug 4, 2015 at 12:23:48 PM

Latest Report: Aug 4, 2015 at 11:00 AM


Visibility: 44 mi

Pressure: 30.01 "Hg

Humidity: 76%

Dew point: 51 °F

Location of OsloLocation

Historic Weather in Oslo — Graph

°F

Oslo temperature yesterday

Maximum temperature yesterday: 68 °F (at 3:00 PM)
Minimum temperature yesterday: 50 °F (at 5:00 AM)
Average temperature yesterday: 59 °F

Past Weeks' High & Low Weather Summary

 TemperatureHumidityPressure
High74 °F (Jul 20, 2:00 PM)96% (Aug 2, 5:00 AM)30.17 "Hg (Aug 2, 5:00 AM)
Low47 °F (Jul 24, 5:00 AM)37% (Jul 23, 5:00 PM)29.35 "Hg (Jul 26, 1:00 PM)
Average59 °F72%29.70 "Hg
* Reported Jul 20 11:00 AM — Aug 4 11:00 AM, Oslo, Weather by CustomWeather, © 2015

Note: Actual official high and low records may vary slightly from our data, if they occured in-between our weather recording intervals... More about our weather records

Advertising

Oslo weather history for previous 24 hours

 ConditionsComfort  
Time TempWeatherWind HumidityBarometerVisibility
11:00 AM
Tue, Aug 4
59 °FLight rain. Overcast.3 mph76%30.01 "Hg43 mi
10:00 AM58 °FCool.5 mph76%30.01 "HgN/A
9:00 AM58 °FCool.3 mph69%30.04 "HgN/A
8:00 AM59 °FOvercast.3 mph65%30.03 "Hg43 mi
7:00 AM58 °FCool.3 mph67%30.05 "HgN/A
6:00 AM56 °FCool.3 mph71%30.05 "HgN/A
5:00 AM55 °FPassing clouds.5 mph74%30.06 "Hg43 mi
4:00 AM54 °FCool.3 mph79%30.09 "HgN/A
3:00 AM55 °FCool.3 mph78%30.10 "HgN/A
2:00 AM55 °FPassing clouds.5 mph74%30.10 "Hg47 mi
1:00 AM53 °FCool.3 mph79%30.11 "HgN/A
12:00 AM53 °FCool.2 mph80%30.12 "HgN/A
10:00 PM
Mon, Aug 3
57 °FCool.1 mph70%30.11 "HgN/A
9:00 PM61 °FRefreshingly cool.2 mph55%30.10 "HgN/A
8:00 PM64 °FPassing clouds.2 mph47%30.10 "Hg43 mi
7:00 PM66 °FMild.2 mph49%30.10 "HgN/A
6:00 PM67 °FMild.2 mph51%30.11 "HgN/A
5:00 PM68 °FScattered clouds.2 mph44%30.12 "Hg43 mi
4:00 PM65 °FMild.2 mph54%30.13 "HgN/A
3:00 PM68 °FMild.2 mph50%30.14 "HgN/A
2:00 PM68 °FOvercast.1 mph52%30.14 "Hg43 mi
1:00 PM62 °FRefreshingly cool.1 mph55%30.15 "HgN/A
12:00 PM61 °FRefreshingly cool.1 mph55%30.17 "HgN/A
Weather by CustomWeather, © 2015

See weather overviewHow to use our weather pages